Hourly Weather Roundup
Issued by NWS Central Illinois

Home | Current Version | Previous Version | Text Only | Print | Product List | Glossary On
Versions: 1 2 3 4 5 6 7 8 9 10 11 12 13 14 15 16 17 18 19 20 21 22 23 24 25 26 27 28 29 30 31 32 33 34 35 36 37 38 39 40 41 42 43 44 45 46 47 48 49 50
000
NZUS43 KILX 181010
HWRILX

AREA WEATHER ROUNDUP
NATIONAL WEATHER SERVICE, LINCOLN IL
500 AM CDT SAT APR 18 2015


CITY           SKY/WX    TMP DP  RH WIND       PRES   REMARKS
BLOOMINGTON    PTCLDY    58  53  83 SW5       30.04S
CHAMPAIGN      CLEAR     56  48  74 SE3       30.02F
DECATUR        PTCLDY    54  49  83 SE3       30.02F
EFFINGHAM      CLEAR     53  50  89 CALM      30.04R FOG
FLORA          CLEAR     54  53  97 CALM      30.03R FOG
GALESBURG      PTCLDY    54  50  86 SE3       30.00F
JACKSONVILLE   MOCLDY    56  53  88 SE3       30.01F
LACON          PTCLDY    59  52  76 SE5       30.01S
LAWRENCEVILLE  CLEAR     54  52  93 N6        30.02R
LITCHFIELD     CLEAR     55  52  90 CALM      30.02S
$$


CITY           SKY/WX    TMP DP  RH WIND       PRES   REMARKS
LINCOLN        MOCLDY    52  47  85 CALM      30.01S
MACOMB         MOCLDY    52  48  86 CALM      30.02F
MATTOON        CLEAR     54  49  83 CALM      30.02R
MT CARMEL AP   FOG       55  52  88 CALM      30.01S VSB 1
OLNEY-NOBLE AP CLEAR     54  52  94 CALM      30.03R
PARIS          CLEAR     51  50  96 CALM      30.03F
PEORIA         MOCLDY    60  52  74 CALM      30.01F
PONTIAC        PTCLDY    60  53  77 SW5       30.03S
RANTOUL        CLEAR     57  52  84 CALM      30.02S
ROBINSON       CLEAR     49  49  99 CALM      30.03S FOG
SPRINGFIELD    MOCLDY    56  52  86 CALM      30.02S
TAYLORVILLE    PTCLDY    54  52  94 CALM      30.02S
$$

...REGIONAL REPORTS...


CITY           SKY/WX    TMP DP  RH WIND       PRES   REMARKS
CHICAGO O`HARE PTCLDY    60  47  61 N3        30.00S
KANKAKEE       CLEAR     51  48  87 CALM      30.03S
MOLINE         PTCLDY    49  44  83 CALM      30.00S
MOUNT VERNON   PTCLDY    48  45  87 CALM      30.03R
PITTSFIELD     PTCLDY    56  53  88 NE3       30.01F
QUINCY         PTCLDY    58  52  80 E5        29.99F
ROCKFORD       PTCLDY    52  46  80 N3        30.04S
$$


CITY           SKY/WX    TMP DP  RH WIND       PRES   REMARKS
BURLINGTON     CLOUDY    59  53  80 CALM      29.99F
CEDAR RAPIDS   PTCLDY    51  47  86 CALM      30.00R
DES MOINES     LGT RAIN  62  57  83 VRB3      29.99S
KIRKSVILLE     CLOUDY    61  55  81 E5        29.98F
OTTUMWA        CLOUDY    56  50  80 SE3       29.97F
ST LOUIS       PTCLDY    61  55  81 CALM      30.00F
$$


CITY           SKY/WX    TMP DP  RH WIND       PRES   REMARKS
TERRE HAUTE    CLEAR     51  48  89 NE3       30.02F
EVANSVILLE     CLEAR     57  54  89 CALM      30.01S FOG
INDIANAPOLIS   CLEAR     54  44  69 NE3       30.02F
LAFAYETTE      CLEAR     49  46  90 CALM      30.02F
MADISON        CLEAR     48  45  89 CALM      30.03S
MILWAUKEE      PTCLDY    54  43  66 NW7       30.03R
$$





USA.gov is the U.S. government's official web portal to all federal, state and local government web resources and services.